DLH762 EDDM-VIDP

Flight info

Callsign DLH762
Flight time N/A
Altitude 33000
Route KIRDI3S KIRDI DCT BUWOQ DCT OBFEZ/N0482F370 DCT STEIN DCT SIRDU DCT GITAS DCT BOKSI DCT TEGRI DCT UDROS UN743 GAKSU UT310 SIN UN644 KARDE/N0498F390 UL851 TBN UR317 REBLO P130 MAMED B449 DOLOS B475 NINOP A909 LEMOD N644 DI A466 ELKUX ELKUX7G
Aircraft A388/J-SADE2E3FGHIJ3J4J5M1RWXY/LB1D1

Departure

Time 2026-05-05 16:11
Airport Munich Airport (EDDM)

Arrival

Time N/A
Airport Indira Gandhi International Airport (VIDP)
Time Latitude Longitude Altitude Speed Heading
2026-05-05 14:56 48.35469 11.79735 1490 ft 0 kts 83°
2026-05-05 15:51 48.35467 11.79710 1487 ft 4 kts 83°
2026-05-05 15:51 48.35464 11.79670 1481 ft 4 kts 83°
2026-05-05 15:51 48.35461 11.79634 1484 ft 3 kts 84°
2026-05-05 15:51 48.35465 11.79601 1478 ft 4 kts 144°
2026-05-05 15:52 48.35489 11.79586 1475 ft 4 kts 169°
2026-05-05 15:52 48.35507 11.79581 1479 ft 1 kts 173°
2026-05-05 15:52 48.35509 11.79581 1487 ft 0 kts 173°
2026-05-05 16:04 48.35505 11.79582 1490 ft 3 kts 173°
2026-05-05 16:04 48.35459 11.79590 1490 ft 10 kts 173°
2026-05-05 16:05 48.35380 11.79603 1483 ft 13 kts 174°
2026-05-05 16:05 48.35294 11.79617 1482 ft 12 kts 174°
2026-05-05 16:05 48.35206 11.79632 1477 ft 14 kts 173°
2026-05-05 16:05 48.35107 11.79649 1490 ft 15 kts 173°
2026-05-05 16:06 48.34999 11.79670 1490 ft 16 kts 173°
2026-05-05 16:06 48.34887 11.79690 1475 ft 15 kts 173°
2026-05-05 16:06 48.34818 11.79709 1482 ft 4 kts 135°
2026-05-05 16:06 48.34806 11.79764 1481 ft 8 kts 86°
2026-05-05 16:07 48.34816 11.79880 1483 ft 13 kts 84°
2026-05-05 16:07 48.34828 11.80036 1486 ft 17 kts 84°
2026-05-05 16:07 48.34841 11.80219 1478 ft 17 kts 84°
2026-05-05 16:07 48.34829 11.80330 1485 ft 10 kts 125°
2026-05-05 16:08 48.34779 11.80387 1475 ft 9 kts 165°
2026-05-05 16:08 48.34710 11.80402 1490 ft 11 kts 173°
2026-05-05 16:08 48.34637 11.80415 1486 ft 8 kts 173°
2026-05-05 16:08 48.34569 11.80427 1490 ft 12 kts 173°
2026-05-05 16:09 48.34503 11.80437 1478 ft 6 kts 180°
2026-05-05 16:09 48.34478 11.80418 1478 ft 4 kts 236°
2026-05-05 16:09 48.34472 11.80391 1485 ft 0 kts 269°
2026-05-05 16:09 48.34472 11.80388 1490 ft 0 kts 269°
2026-05-05 16:10 48.34469 11.80309 1490 ft 33 kts 265°
2026-05-05 16:10 48.34414 11.79595 1490 ft 101 kts 263°
2026-05-05 16:10 48.34313 11.78286 1490 ft 148 kts 263°
2026-05-05 16:11 48.34175 11.76618 1560 ft 168 kts 262°
2026-05-05 16:11 48.33207 11.71643 2498 ft 170 kts 219°
2026-05-05 16:12 48.32154 11.70891 2866 ft 168 kts 194°
2026-05-05 16:12 48.30174 11.70830 3263 ft 181 kts 180°
2026-05-05 16:13 48.26204 11.73409 3881 ft 250 kts 145°
2026-05-05 16:13 48.24710 11.74952 4256 ft 271 kts 146°
2026-05-05 16:13 48.23123 11.76545 4953 ft 277 kts 146°
2026-05-05 16:14 48.19914 11.79782 6590 ft 280 kts 142°
2026-05-05 16:14 48.18114 11.84799 8036 ft 284 kts 91°
2026-05-05 16:15 48.18566 11.90743 9423 ft 291 kts 82°
2026-05-05 16:15 48.19107 11.96777 10903 ft 293 kts 84°
2026-05-05 16:16 48.19568 12.02966 12109 ft 306 kts 86°
2026-05-05 16:16 48.20012 12.09374 13315 ft 314 kts 87°
2026-05-05 16:17 48.20464 12.15957 14484 ft 321 kts 86°
2026-05-05 16:17 48.20693 12.19296 15075 ft 324 kts 86°
2026-05-05 16:18 48.21157 12.26071 16164 ft 330 kts 86°
2026-05-05 16:18 48.21391 12.29505 16690 ft 333 kts 86°
2026-05-05 16:18 48.21861 12.36465 17709 ft 338 kts 86°
2026-05-05 16:19 48.22098 12.39988 18210 ft 341 kts 86°
2026-05-05 16:19 48.22336 12.43539 18691 ft 344 kts 86°
2026-05-05 16:19 48.22813 12.50725 19642 ft 349 kts 87°
2026-05-05 16:20 48.23054 12.58014 20573 ft 350 kts 98°
2026-05-05 16:20 48.22364 12.65266 21040 ft 367 kts 101°
2026-05-05 16:21 48.21624 12.73104 21274 ft 391 kts 101°
2026-05-05 16:22 48.20801 12.85646 21990 ft 415 kts 90°
2026-05-05 16:22 48.20966 12.94338 22777 ft 419 kts 91°
2026-05-05 16:23 48.21087 13.03132 23513 ft 424 kts 91°
2026-05-05 16:23 48.21146 13.07555 23883 ft 426 kts 91°
2026-05-05 16:23 48.21264 13.16435 24608 ft 431 kts 91°
2026-05-05 16:24 48.21321 13.20948 24957 ft 434 kts 91°
2026-05-05 16:24 48.21376 13.25481 25315 ft 437 kts 91°
2026-05-05 16:24 48.21482 13.34522 26029 ft 442 kts 91°
2026-05-05 16:25 48.21533 13.39068 26418 ft 445 kts 91°
2026-05-05 16:25 48.21633 13.48412 27155 ft 451 kts 91°
2026-05-05 16:25 48.21679 13.53108 27554 ft 454 kts 91°
2026-05-05 16:26 48.21764 13.62259 28314 ft 460 kts 91°
2026-05-05 16:26 48.21844 13.71920 29038 ft 467 kts 91°
2026-05-05 16:27 48.21882 13.76799 29414 ft 469 kts 91°
2026-05-05 16:27 48.21917 13.81525 29751 ft 472 kts 91°
2026-05-05 16:27 48.21952 13.86451 30121 ft 475 kts 91°
2026-05-05 16:27 48.21984 13.91424 30476 ft 478 kts 91°
2026-05-05 16:28 48.21788 13.96404 30819 ft 479 kts 100°
2026-05-05 16:28 48.21118 14.01293 31173 ft 479 kts 108°
2026-05-05 16:28 48.20008 14.05961 31492 ft 480 kts 116°
2026-05-05 16:28 48.18642 14.10535 31815 ft 483 kts 116°
2026-05-05 16:29 48.17303 14.15098 32139 ft 486 kts 116°
2026-05-05 16:29 48.15979 14.19634 32426 ft 489 kts 116°
2026-05-05 16:29 48.14612 14.24304 32747 ft 491 kts 116°
2026-05-05 16:29 48.13354 14.28592 33054 ft 494 kts 116°
2026-05-05 16:30 48.11959 14.33336 33361 ft 497 kts 115°
2026-05-05 16:30 48.10622 14.37871 33643 ft 499 kts 115°
2026-05-05 16:30 48.09212 14.42641 33928 ft 502 kts 115°
2026-05-05 16:30 48.07796 14.47421 34293 ft 504 kts 115°
2026-05-05 16:31 48.06504 14.51779 34690 ft 503 kts 116°
2026-05-05 16:31 48.05083 14.56559 35114 ft 503 kts 116°
2026-05-05 16:31 48.03664 14.61326 35547 ft 502 kts 116°
2026-05-05 16:31 48.02244 14.66079 35993 ft 501 kts 116°
2026-05-05 16:32 48.00835 14.70790 36367 ft 500 kts 116°
2026-05-05 16:32 47.99431 14.75479 36704 ft 501 kts 116°
2026-05-05 16:32 47.96628 14.84810 36774 ft 496 kts 116°
2026-05-05 16:33 47.93756 14.94332 36793 ft 492 kts 116°
2026-05-05 16:33 47.90952 15.03586 36796 ft 494 kts 116°
2026-05-05 16:34 47.88122 15.12908 36810 ft 493 kts 116°
2026-05-05 16:34 47.85287 15.22201 36817 ft 493 kts 116°
2026-05-05 16:35 47.82441 15.31495 36829 ft 493 kts 116°
2026-05-05 16:35 47.79608 15.40787 36834 ft 493 kts 116°
2026-05-05 16:36 47.76798 15.50103 36829 ft 493 kts 116°
2026-05-05 16:36 47.73981 15.59401 36834 ft 493 kts 116°
2026-05-05 16:37 47.71148 15.68692 36832 ft 493 kts 116°
2026-05-05 16:37 47.68315 15.77954 36814 ft 493 kts 116°
2026-05-05 16:38 47.65477 15.87198 36812 ft 492 kts 116°
2026-05-05 16:38 47.62650 15.96367 36813 ft 492 kts 116°
2026-05-05 16:39 47.59800 16.05584 36818 ft 492 kts 116°
2026-05-05 16:39 47.56941 16.14792 36816 ft 492 kts 116°
2026-05-05 16:40 47.54078 16.23982 36836 ft 492 kts 116°
2026-05-05 16:40 47.51202 16.33182 36829 ft 492 kts 116°
2026-05-05 16:41 47.48319 16.42363 36835 ft 492 kts 116°
2026-05-05 16:41 47.45430 16.51533 36832 ft 492 kts 116°
2026-05-05 16:42 47.42585 16.60732 36834 ft 493 kts 112°
2026-05-05 16:42 47.40346 16.70297 36844 ft 493 kts 110°
2026-05-05 16:43 47.38118 16.79872 36848 ft 492 kts 110°
2026-05-05 16:43 47.35879 16.89418 36848 ft 492 kts 110°
2026-05-05 16:44 47.33631 16.98954 36874 ft 492 kts 110°
2026-05-05 16:44 47.31376 17.08475 36886 ft 492 kts 110°
2026-05-05 16:45 47.29108 17.18002 36886 ft 493 kts 110°
2026-05-05 16:45 47.26832 17.27535 36888 ft 493 kts 110°
2026-05-05 16:46 47.24556 17.37051 36888 ft 493 kts 110°
2026-05-05 16:46 47.22329 17.46602 36888 ft 494 kts 110°
2026-05-05 16:47 47.20112 17.56086 36896 ft 493 kts 110°
2026-05-05 16:47 47.17867 17.65610 36898 ft 493 kts 110°
2026-05-05 16:48 47.15613 17.75126 36887 ft 493 kts 110°
2026-05-05 16:48 47.13351 17.84632 36894 ft 492 kts 110°
2026-05-05 16:49 47.11082 17.94115 36893 ft 492 kts 110°
2026-05-05 16:49 47.08811 18.03584 36903 ft 492 kts 110°
2026-05-05 16:50 47.06532 18.13038 36907 ft 492 kts 110°
2026-05-05 16:50 47.04237 18.22499 36903 ft 492 kts 110°
2026-05-05 16:51 47.01916 18.31950 36909 ft 493 kts 111°
2026-05-05 16:51 46.99591 18.41400 36911 ft 493 kts 111°
2026-05-05 16:52 46.97255 18.50844 36913 ft 494 kts 111°
2026-05-05 16:52 46.94910 18.60287 36907 ft 494 kts 111°
2026-05-05 16:53 46.92584 18.69620 36907 ft 494 kts 111°
2026-05-05 16:53 46.90213 18.79096 36909 ft 494 kts 111°
2026-05-05 16:54 46.87839 18.88529 36909 ft 494 kts 111°
2026-05-05 16:54 46.85462 18.97949 36927 ft 494 kts 111°
2026-05-05 16:55 46.83080 19.07356 36930 ft 493 kts 111°
2026-05-05 16:55 46.80691 19.16746 36914 ft 493 kts 111°
2026-05-05 16:56 46.78296 19.26119 36917 ft 493 kts 111°
2026-05-05 16:56 46.75892 19.35489 36929 ft 493 kts 111°
2026-05-05 16:57 46.73477 19.44860 36908 ft 493 kts 111°
2026-05-05 16:57 46.71060 19.54204 36914 ft 493 kts 111°
2026-05-05 16:58 46.68636 19.63546 36911 ft 493 kts 111°
2026-05-05 16:58 46.66199 19.72886 36919 ft 493 kts 111°
2026-05-05 16:59 46.63759 19.82214 36912 ft 493 kts 111°
2026-05-05 16:59 46.61197 19.91463 36923 ft 493 kts 113°
2026-05-05 17:00 46.58518 20.00660 36924 ft 494 kts 113°
2026-05-05 17:00 46.55884 20.09769 36928 ft 493 kts 112°
2026-05-05 17:01 46.53204 20.19048 36913 ft 493 kts 112°
2026-05-05 17:01 46.50998 20.26675 36922 ft 493 kts 113°
2026-05-05 17:02 46.48335 20.35837 36929 ft 493 kts 113°
2026-05-05 17:02 46.45666 20.44990 36929 ft 491 kts 112°
2026-05-05 17:03 46.42988 20.54141 36930 ft 492 kts 112°
2026-05-05 17:03 46.40303 20.63259 36931 ft 491 kts 113°
2026-05-05 17:04 46.37639 20.72304 36930 ft 491 kts 113°
2026-05-05 17:04 46.34932 20.81444 36928 ft 491 kts 113°
2026-05-05 17:05 46.32253 20.90467 36929 ft 491 kts 113°
2026-05-05 17:05 46.29547 20.99538 36933 ft 491 kts 113°
2026-05-05 17:06 46.26831 21.08612 36937 ft 492 kts 113°
2026-05-05 17:06 46.24064 21.17639 36930 ft 492 kts 114°
2026-05-05 17:07 46.21229 21.26634 36934 ft 492 kts 114°
2026-05-05 17:07 46.18418 21.35627 36932 ft 491 kts 113°
2026-05-05 17:08 46.15609 21.44627 36930 ft 492 kts 113°
2026-05-05 17:08 46.12795 21.53621 36934 ft 492 kts 113°
2026-05-05 17:09 46.09967 21.62618 36944 ft 493 kts 113°
2026-05-05 17:09 46.07131 21.71608 36945 ft 493 kts 113°
2026-05-05 17:10 46.04285 21.80577 36940 ft 493 kts 113°
2026-05-05 17:10 46.01423 21.89560 36946 ft 494 kts 113°
2026-05-05 17:11 45.98554 21.98529 36946 ft 494 kts 113°
2026-05-05 17:11 45.95678 22.07492 36947 ft 494 kts 114°
2026-05-05 17:12 45.92811 22.16398 36947 ft 494 kts 114°
2026-05-05 17:12 45.89902 22.25399 36948 ft 494 kts 114°
2026-05-05 17:13 45.87005 22.34340 36945 ft 493 kts 114°
2026-05-05 17:13 45.84123 22.43198 36944 ft 493 kts 114°
2026-05-05 17:14 45.81218 22.52101 36940 ft 493 kts 114°
2026-05-05 17:14 45.78306 22.60994 36938 ft 493 kts 114°
2026-05-05 17:15 45.75380 22.69894 36942 ft 493 kts 114°
2026-05-05 17:15 45.72454 22.78770 36953 ft 493 kts 114°
2026-05-05 17:16 45.69519 22.87641 36954 ft 493 kts 114°
2026-05-05 17:16 45.66577 22.96504 36960 ft 493 kts 114°
2026-05-05 17:17 45.63630 23.05353 36962 ft 493 kts 114°
2026-05-05 17:17 45.60676 23.14195 36962 ft 493 kts 114°
2026-05-05 17:18 45.57716 23.23023 36963 ft 493 kts 114°
2026-05-05 17:18 45.54748 23.31839 36964 ft 493 kts 114°
2026-05-05 17:19 45.51779 23.40633 36966 ft 492 kts 114°
2026-05-05 17:19 45.48806 23.49406 36961 ft 491 kts 114°
2026-05-05 17:20 45.45829 23.58169 36967 ft 491 kts 114°
2026-05-05 17:20 45.42850 23.66906 36963 ft 491 kts 114°
2026-05-05 17:21 45.39858 23.75650 36961 ft 491 kts 114°
2026-05-05 17:22 45.35361 23.88747 36961 ft 491 kts 114°
2026-05-05 17:22 45.32354 23.97462 36969 ft 491 kts 114°
2026-05-05 17:23 45.29343 24.06162 36981 ft 491 kts 114°
2026-05-05 17:23 45.26344 24.14793 36973 ft 490 kts 114°
2026-05-05 17:24 45.23333 24.23446 36968 ft 489 kts 114°
2026-05-05 17:24 45.20313 24.32093 36966 ft 489 kts 115°
2026-05-05 17:25 45.17288 24.40720 36970 ft 488 kts 115°
2026-05-05 17:25 45.14256 24.49338 36970 ft 488 kts 115°
2026-05-05 17:26 45.11223 24.57936 36972 ft 488 kts 115°
2026-05-05 17:26 45.08178 24.66542 36974 ft 489 kts 115°
2026-05-05 17:27 45.05129 24.75135 36982 ft 489 kts 115°
2026-05-05 17:27 45.02067 24.83731 36989 ft 489 kts 115°
2026-05-05 17:28 44.99002 24.92314 36990 ft 489 kts 115°
2026-05-05 17:28 44.95950 25.00822 36993 ft 489 kts 115°
2026-05-05 17:29 44.92875 25.09376 36996 ft 489 kts 115°
2026-05-05 17:29 44.89794 25.17918 36997 ft 488 kts 115°
2026-05-05 17:30 44.86710 25.26445 36991 ft 488 kts 115°
2026-05-05 17:30 44.83622 25.34952 36989 ft 487 kts 115°
2026-05-05 17:31 44.80533 25.43438 36989 ft 486 kts 115°
2026-05-05 17:31 44.77442 25.51898 36987 ft 486 kts 115°
2026-05-05 17:32 44.74348 25.60338 36987 ft 485 kts 115°
2026-05-05 17:32 44.71250 25.68770 36982 ft 485 kts 115°
2026-05-05 17:33 44.68151 25.77181 36981 ft 484 kts 115°
2026-05-05 17:33 44.65048 25.85575 36984 ft 484 kts 115°
2026-05-05 17:34 44.61936 25.93968 36987 ft 484 kts 116°
2026-05-05 17:34 44.58818 26.02350 36989 ft 485 kts 116°
2026-05-05 17:35 44.55690 26.10737 36997 ft 484 kts 116°
2026-05-05 17:35 44.52584 26.19034 36995 ft 484 kts 116°
2026-05-05 17:36 44.49456 26.27365 36990 ft 483 kts 116°
2026-05-05 17:36 44.46320 26.35695 36988 ft 483 kts 116°
2026-05-05 17:37 44.43182 26.44006 36986 ft 483 kts 116°
2026-05-05 17:37 44.40037 26.52309 36989 ft 483 kts 116°
2026-05-05 17:38 44.36889 26.60594 36992 ft 483 kts 116°
2026-05-05 17:38 44.33735 26.68873 36996 ft 483 kts 116°
2026-05-05 17:39 44.30571 26.77151 37000 ft 483 kts 116°
2026-05-05 17:39 44.27400 26.85424 37009 ft 483 kts 116°
2026-05-05 17:40 44.24223 26.93688 37012 ft 484 kts 116°
2026-05-05 17:40 44.21040 27.01942 37013 ft 484 kts 116°
2026-05-05 17:41 44.17848 27.10196 37020 ft 484 kts 116°
2026-05-05 17:41 44.14656 27.18430 37020 ft 483 kts 116°
2026-05-05 17:42 44.11454 27.26658 37033 ft 483 kts 117°
2026-05-05 17:42 44.08246 27.34882 37032 ft 483 kts 117°
2026-05-05 17:43 44.05035 27.43084 37029 ft 483 kts 117°
2026-05-05 17:43 44.01818 27.51282 37035 ft 483 kts 117°
2026-05-05 17:44 43.98598 27.59467 37028 ft 483 kts 117°
2026-05-05 17:44 43.95370 27.67652 37032 ft 483 kts 117°
2026-05-05 17:45 43.92158 27.75768 37044 ft 483 kts 117°
2026-05-05 17:45 43.88918 27.83927 37048 ft 483 kts 117°
2026-05-05 17:46 43.85672 27.92081 37048 ft 483 kts 117°
2026-05-05 17:46 43.82421 28.00221 37047 ft 483 kts 117°
2026-05-05 17:47 43.79170 28.08339 37046 ft 482 kts 117°
2026-05-05 17:47 43.75909 28.16463 37045 ft 483 kts 117°
2026-05-05 17:48 43.72643 28.24570 37046 ft 482 kts 117°
2026-05-05 17:48 43.69372 28.32675 37045 ft 483 kts 117°